Tracking 20241 objects as of 26-Jan-2020
HD Live streaming from Space Station
objects crossing your sky now

LEMUR 2 ROBMOORE

Track LEMUR 2 ROBMOORE now!
10-day predictions
LEMUR 2 ROBMOORE is classified as:


NORAD ID: 42754
Int'l Code: 2017-019D
Perigee: 473.2 km
Apogee: 487.1 km
Inclination: 51.6 °
Period: 94.1 minutes
Semi major axis: 6851 km
RCS: Unknown
Launch date: April 18, 2017
Source: United States (US)
Launch site: AIR FORCE EASTERN TEST RANGE (AFETR)
aabbcc
Your satellite tracking list
Your tracking list is empty




NASA's NSSDC Master Catalog

Two Line Element Set (TLE):
1 42754U 17019D   20025.80902842  .00001576  00000-0  63984-4 0  9995
2 42754  51.6405 146.1579 0010154 152.4324 207.7197 15.30952274147058
Source of the keplerian elements: AFSPC